Tracking 20942 objects as of 15-Jul-2020
HD Live streaming from Space Station
objects crossing your sky now

SL-12 DEB

Track SL-12 DEB now!
10-day predictions


NORAD ID: 44554
Int'l Code: 2010-041Z
Perigee: 554.5 km
Apogee: 19,194.1 km
Inclination: 65.2 °
Period: 343.4 minutes
Semi major axis: 16245 km
RCS: Unknown
Launch date: September 2, 2010
Source: Commonwealth of Independent States (former USSR) (CIS)
Launch site: ()

Note: This is SATELLITE DEBRIS
aabbcc
Your satellite tracking list
Your tracking list is empty




NASA's NSSDC Master Catalog

Two Line Element Set (TLE):
1 44554U 10041Z   19313.84317318 +.00009514 +00000-0 +33075-1 0  9998
2 44554 065.1632 264.3150 5736918 032.5132 352.4691 04.19286774002519
Source of the keplerian elements: AFSPC